Weather History for New Philadelphia, OH

Change the Weather History Date:

Monday, November 4, 2013

  Actual Average Record
Temperature  
Mean Temperature 39 °F 47 °F  
Max Temperature 49 °F 58 °F 81 °F (1961)
Min Temperature 28 °F 36 °F 17 °F (1991)
Degree Days  
Heating Degree Days 26 18  
Month to date heating degree days 72 71  
Since 1 July heating degree days 522 570  
Cooling Degree Days 0 0  
Month to date cooling degree days 0 0  
Year to date cooling degree days 755 697  
Moisture  
Dew Point 25 °F    
Average Humidity 57    
Maximum Humidity 78    
Minimum Humidity 36    
Precipitation  
Precipitation 0.00 in 0.11 in 1.09 in (1988)
Month to date precipitation 0.54 0.44  
Year to date precipitation 28.55 33.40  
Sea Level Pressure  
Sea Level Pressure 30.48 in    
Wind  
Wind Speed 5 mph (ESE)    
Max Wind Speed 12 mph    
Max Gust Speed 16 mph    
Visibility 10 miles    
Events      
T = Trace of Precipitation, MM = Missing Value Source: NWS Daily Summary

Daily Weather History Graph

Daily Weather History Graph

Search for Another Location

Airport:

Trip Planner

Search our weather history database for the weather conditions in past years. The results will help you decide how hot, cold, wet, or windy it might be!

Date:

Astronomy

Nov. 04, 2013 Rise Set
Actual Time 6:59 AM EST 5:18 PM EST
Civil Twilight 6:30 AM EST 5:47 PM EST
Nautical Twilight 5:58 AM EST 6:19 PM EST
Astronomical Twilight 5:26 AM EST 6:51 PM EST
Moon 8:08 AM EST (11/4) 6:21 PM EST (11/4)
Length of Visible Light 11h 16m
Length of Day
10h 19m
New Moon, 2% of the Moon is Illuminated
Nov 4
New Moon
Nov 10
First Quarter
Nov 17
Full
Nov 25
Last Quarter
Dec 2
New

Hourly Weather History & Observations

Time (EST) Temp. Windchill Dew Point Humidity Pressure Visibility Wind Dir Wind Speed Gust Speed Precip Events Conditions
12:53 AM 33.1 °F 30.0 °F 25.0 °F 72% 30.51 in 10.0 mi East 3.5 mph - N/A   Clear
1:53 AM 30.9 °F - 24.1 °F 76% 30.51 in 10.0 mi Calm Calm - N/A   Clear
2:53 AM 30.0 °F - 24.1 °F 79% 30.51 in 10.0 mi Calm Calm - N/A   Clear
3:53 AM 28.0 °F - 23.0 °F 81% 30.51 in 10.0 mi Calm Calm - N/A   Clear
4:53 AM 30.0 °F 25.2 °F 21.9 °F 72% 30.51 in 10.0 mi ESE 4.6 mph - N/A   Clear
5:53 AM 30.9 °F 27.5 °F 21.9 °F 69% 30.52 in 10.0 mi East 3.5 mph - N/A   Clear
6:53 AM 30.9 °F 27.5 °F 21.9 °F 69% 30.53 in 10.0 mi Variable 3.5 mph - N/A   Clear
7:53 AM 32.0 °F 25.6 °F 23.0 °F 69% 30.53 in 10.0 mi East 6.9 mph - N/A   Clear
8:53 AM 34.0 °F 28.8 °F 25.0 °F 70% 30.53 in 10.0 mi East 5.8 mph - N/A   Clear
9:53 AM 37.0 °F 33.3 °F 26.1 °F 65% 30.53 in 10.0 mi ESE 4.6 mph - N/A   Clear
10:53 AM 39.9 °F 34.5 °F 24.1 °F 53% 30.52 in 10.0 mi East 8.1 mph - N/A   Clear
11:53 AM 42.1 °F 38.4 °F 25.0 °F 51% 30.50 in 10.0 mi East 5.8 mph - N/A   Clear
12:53 PM 45.0 °F 41.8 °F 25.0 °F 46% 30.48 in 10.0 mi SE 5.8 mph - N/A   Clear
1:53 PM 48.0 °F - 23.0 °F 37% 30.43 in 10.0 mi ESE 8.1 mph - N/A   Clear
2:53 PM 48.0 °F - 24.1 °F 39% 30.43 in 10.0 mi SE 8.1 mph - N/A   Clear
3:53 PM 48.0 °F - 25.0 °F 41% 30.42 in 10.0 mi SE 6.9 mph - N/A   Clear
4:53 PM 46.9 °F - 26.1 °F 44% 30.44 in 10.0 mi SE 6.9 mph - N/A   Clear
5:53 PM 45.0 °F 43.5 °F 27.0 °F 49% 30.44 in 10.0 mi East 3.5 mph - N/A   Clear
6:53 PM 44.1 °F 40.8 °F 28.0 °F 53% 30.44 in 10.0 mi ESE 5.8 mph - N/A   Clear
7:53 PM 43.0 °F 41.3 °F 28.9 °F 58% 30.44 in 10.0 mi ESE 3.5 mph - N/A   Clear
8:53 PM 44.1 °F 40.8 °F 28.0 °F 53% 30.43 in 10.0 mi SE 5.8 mph - N/A   Clear
9:53 PM 43.0 °F 41.3 °F 28.0 °F 56% 30.44 in 10.0 mi ESE 3.5 mph - N/A   Clear
10:53 PM 44.1 °F 42.5 °F 28.0 °F 53% 30.44 in 10.0 mi SE 3.5 mph - N/A   Clear
11:53 PM 43.0 °F 40.3 °F 28.9 °F 58% 30.43 in 10.0 mi ESE 4.6 mph - N/A   Clear